| time (UTC) | temp F | wind direction | speed MPH | gust MPH | rain 1hr in | rain 24hr in | rain mn in | humidity % | barometer mb |
| 20260503200029 | 61 | 243 | 1.0 | 1.0 | 0.00 | 0.00 | 0.00 | 66 | 1016.8 |
| 20260503195026 | 62 | 253 | 1.0 | 1.0 | 0.00 | 0.00 | 0.00 | 66 | 1016.8 |
| 20260503194023 | 62 | 255 | 0.0 | 1.0 | 0.00 | 0.00 | 0.00 | 63 | 1016.7 |
| 20260503193020 | 63 | 256 | 0.0 | 1.0 | 0.00 | 0.00 | 0.00 | 64 | 1016.6 |
| 20260503192017 | 64 | 231 | 1.0 | 2.0 | 0.00 | 0.00 | 0.00 | 61 | 1016.6 |
| 20260503191034 | 64 | 181 | 0.0 | 1.0 | 0.00 | 0.00 | 0.00 | 60 | 1016.5 |
| 20260503190051 | 64 | 182 | 0.0 | 1.0 | 0.00 | 0.00 | 0.00 | 60 | 1016.5 |
| 20260503185030 | 65 | 182 | 0.0 | 0.0 | 0.00 | 0.00 | 0.00 | 58 | 1016.5 |
| 20260503184025 | 66 | 182 | 0.0 | 1.0 | 0.00 | 0.00 | 0.00 | 56 | 1016.3 |
| 20260503183022 | 67 | 153 | 0.0 | 1.0 | 0.00 | 0.00 | 0.00 | 54 | 1016.2 |
| 20260503182019 | 68 | 180 | 1.0 | 2.0 | 0.00 | 0.00 | 0.00 | 51 | 1016.2 |
| 20260503181017 | 68 | 224 | 1.0 | 2.0 | 0.00 | 0.00 | 0.00 | 51 | 1016.2 |
| 20260503180034 | 69 | 212 | 1.0 | 2.0 | 0.00 | 0.00 | 0.00 | 52 | 1016.1 |
| 20260503175051 | 69 | 148 | 0.0 | 1.0 | 0.00 | 0.00 | 0.00 | 53 | 1016.1 |
| 20260503174028 | 69 | 105 | 1.0 | 2.0 | 0.00 | 0.00 | 0.00 | 52 | 1016.1 |
| 20260503173025 | 70 | 114 | 0.0 | 2.0 | 0.00 | 0.00 | 0.00 | 51 | 1016.2 |
| 20260503172022 | 70 | 105 | 1.0 | 3.0 | 0.00 | 0.00 | 0.00 | 50 | 1016.2 |
| 20260503171019 | 70 | 130 | 2.0 | 4.0 | 0.00 | 0.00 | 0.00 | 50 | 1016.3 |
| 20260503131031 | 70 | 102 | 4.0 | 10.0 | 0.00 | 0.00 | 0.00 | 54 | 1018.0 |
| 20260503081043 | 71 | 247 | 4.0 | 8.0 | 0.00 | 0.00 | 0.00 | 40 | 1019.7 |
| 20260503072028 | 66 | 252 | 4.0 | 8.0 | 0.00 | 0.00 | 0.00 | 46 | 1019.7 |
| 20260503071026 | 65 | 244 | 4.0 | 8.0 | 0.00 | 0.00 | 0.00 | 48 | 1019.7 |
| 20260503055022 | 55 | 270 | 4.0 | 8.0 | 0.00 | 0.00 | 0.00 | 63 | 1019.7 |
| 20260503054020 | 55 | 260 | 4.0 | 9.0 | 0.00 | 0.00 | 0.00 | 62 | 1019.7 |
| 20260503053017 | 53 | 260 | 4.0 | 8.0 | 0.00 | 0.00 | 0.00 | 66 | 1019.7 |
| 20260503052034 | 52 | 271 | 4.0 | 7.0 | 0.00 | 0.00 | 0.00 | 69 | 1019.5 |
| 20260503051031 | 51 | 269 | 5.0 | 9.0 | 0.00 | 0.00 | 0.00 | 70 | 1019.6 |
| 20260503050028 | 51 | 276 | 5.0 | 8.0 | 0.00 | 0.00 | 0.00 | 71 | 1019.5 |
| 20260503045025 | 50 | 270 | 4.0 | 7.0 | 0.00 | 0.00 | 0.00 | 72 | 1019.5 |
| 20260503044022 | 50 | 260 | 4.0 | 10.0 | 0.00 | 0.00 | 0.00 | 73 | 1019.5 |
| 20260503043019 | 49 | 259 | 4.0 | 7.0 | 0.00 | 0.00 | 0.00 | 74 | 1019.5 |
| 20260503042016 | 49 | 264 | 2.0 | 4.0 | 0.00 | 0.00 | 0.00 | 75 | 1019.4 |
| 20260503041034 | 49 | 262 | 4.0 | 8.0 | 0.00 | 0.00 | 0.00 | 75 | 1019.5 |
| 20260503040031 | 49 | 261 | 3.0 | 6.0 | 0.00 | 0.00 | 0.00 | 75 | 1019.4 |
| 20260503035028 | 49 | 266 | 3.0 | 7.0 | 0.00 | 0.00 | 0.00 | 76 | 1019.5 |
| 20260503034025 | 49 | 267 | 4.0 | 7.0 | 0.00 | 0.00 | 0.00 | 75 | 1019.4 |
| 20260503033022 | 49 | 260 | 4.0 | 8.0 | 0.00 | 0.00 | 0.00 | 76 | 1019.4 |
| 20260503032039 | 49 | 272 | 6.0 | 9.0 | 0.00 | 0.00 | 0.00 | 76 | 1019.4 |
| 20260503031016 | 49 | 266 | 5.0 | 8.0 | 0.00 | 0.00 | 0.00 | 76 | 1019.5 |
| 20260503030033 | 48 | 265 | 5.0 | 8.0 | 0.00 | 0.00 | 0.00 | 77 | 1019.5 |
| 20260503025030 | 49 | 268 | 5.0 | 8.0 | 0.00 | 0.00 | 0.00 | 77 | 1019.5 |
| 20260503024027 | 49 | 263 | 5.0 | 9.0 | 0.00 | 0.00 | 0.00 | 76 | 1019.6 |
| 20260503023025 | 49 | 264 | 4.0 | 7.0 | 0.00 | 0.00 | 0.00 | 77 | 1019.7 |
| 20260503022022 | 48 | 266 | 4.0 | 7.0 | 0.00 | 0.00 | 0.00 | 78 | 1019.8 |
| 20260503021019 | 48 | 272 | 5.0 | 8.0 | 0.00 | 0.00 | 0.00 | 77 | 1019.8 |
| 20260503020016 | 48 | 265 | 5.0 | 8.0 | 0.00 | 0.00 | 0.00 | 78 | 1019.7 |
| 20260503015033 | 48 | 263 | 5.0 | 8.0 | 0.00 | 0.00 | 0.00 | 77 | 1019.8 |
| 20260503014030 | 48 | 267 | 5.0 | 8.0 | 0.00 | 0.00 | 0.00 | 78 | 1019.8 |
| 20260503013027 | 48 | 267 | 5.0 | 7.0 | 0.00 | 0.00 | 0.00 | 78 | 1019.8 |
| 20260503012025 | 49 | 263 | 5.0 | 8.0 | 0.00 | 0.00 | 0.00 | 77 | 1020.0 |
| 20260503011021 | 48 | 265 | 5.0 | 8.0 | 0.00 | 0.00 | 0.00 | 77 | 1020.0 |
| 20260503010019 | 49 | 263 | 4.0 | 7.0 | 0.00 | 0.00 | 0.00 | 76 | 1020.1 |
| 20260503005056 | 49 | 255 | 5.0 | 7.0 | 0.00 | 0.00 | 0.00 | 77 | 1020.2 |
| 20260503004033 | 49 | 262 | 4.0 | 7.0 | 0.00 | 0.00 | 0.00 | 77 | 1020.3 |
| 20260503003030 | 49 | 250 | 4.0 | 7.0 | 0.00 | 0.00 | 0.00 | 76 | 1020.4 |
| 20260503002027 | 49 | 260 | 4.0 | 7.0 | 0.00 | 0.00 | 0.00 | 75 | 1020.4 |
| 20260503001024 | 49 | 265 | 4.0 | 7.0 | 0.00 | 0.00 | 0.00 | 76 | 1020.6 |
| 20260503000021 | 50 | 263 | 4.0 | 6.0 | 0.00 | 0.00 | 0.00 | 74 | 1020.6 |
| 20260502235018 | 50 | 269 | 4.0 | 7.0 | 0.00 | 0.00 | 0.00 | 75 | 1020.7 |
| 20260502234035 | 50 | 264 | 4.0 | 7.0 | 0.00 | 0.00 | 0.00 | 75 | 1020.8 |
| 20260502233054 | 50 | 260 | 4.0 | 9.0 | 0.00 | 0.00 | 0.00 | 75 | 1020.8 |
| 20260502232050 | 50 | 262 | 4.0 | 6.0 | 0.00 | 0.00 | 0.00 | 74 | 1020.9 |
| 20260502231026 | 51 | 262 | 4.0 | 6.0 | 0.00 | 0.00 | 0.00 | 73 | 1021.0 |
| 20260502230024 | 51 | 258 | 3.0 | 7.0 | 0.00 | 0.00 | 0.00 | 73 | 1021.0 |
| 20260502225021 | 51 | 261 | 4.0 | 7.0 | 0.00 | 0.00 | 0.00 | 72 | 1021.2 |
| 20260502224018 | 51 | 259 | 3.0 | 6.0 | 0.00 | 0.00 | 0.00 | 71 | 1021.3 |
| 20260502223035 | 51 | 257 | 4.0 | 7.0 | 0.00 | 0.00 | 0.00 | 71 | 1021.3 |
| 20260502222032 | 51 | 260 | 3.0 | 7.0 | 0.00 | 0.00 | 0.00 | 71 | 1021.4 |
| 20260502221029 | 51 | 263 | 4.0 | 6.0 | 0.00 | 0.00 | 0.00 | 71 | 1021.3 |
| 20260502220026 | 52 | 265 | 3.0 | 4.0 | 0.00 | 0.00 | 0.00 | 71 | 1021.4 |
| 20260502215024 | 52 | 276 | 2.0 | 3.0 | 0.00 | 0.00 | 0.00 | 69 | 1021.4 |
| 20260502214021 | 52 | 259 | 2.0 | 4.0 | 0.00 | 0.00 | 0.00 | 69 | 1021.5 |
| 20260502213038 | 52 | 268 | 5.0 | 7.0 | 0.00 | 0.00 | 0.00 | 68 | 1021.5 |
| 20260502212055 | 52 | 261 | 4.0 | 6.0 | 0.00 | 0.00 | 0.00 | 67 | 1021.5 |
| 20260502211032 | 53 | 268 | 3.0 | 7.0 | 0.00 | 0.00 | 0.00 | 67 | 1021.4 |
| 20260502210029 | 53 | 265 | 3.0 | 4.0 | 0.00 | 0.00 | 0.00 | 67 | 1021.4 |
| 20260502205047 | 53 | 263 | 2.0 | 6.0 | 0.00 | 0.00 | 0.00 | 66 | 1021.5 |
| 20260502204024 | 54 | 260 | 2.0 | 3.0 | 0.00 | 0.00 | 0.00 | 63 | 1021.5 |
| 20260502203021 | 54 | 267 | 3.0 | 6.0 | 0.00 | 0.00 | 0.00 | 64 | 1021.4 |
| 20260502202023 | 55 | 267 | 2.0 | 3.0 | 0.00 | 0.00 | 0.00 | 61 | 1021.4 |
| 20260502201116 | 55 | 257 | 3.0 | 6.0 | 0.00 | 0.00 | 0.00 | 60 | 1021.6 |